Weather History for KUES - February, 2013

Change the Weather History Date:

Wednesday, February 20, 2013

  Actual Average Record
Temperature  
Mean Temperature 10 °F -  
Max Temperature 17 °F 35 °F 59 °F (1983)
Min Temperature 3 °F 18 °F -10 °F (1966)
Degree Days  
Heating Degree Days 55    
Moisture  
Dew Point 4 °F    
Average Humidity 76    
Maximum Humidity 85    
Minimum Humidity 68    
Precipitation  
Precipitation 0.00 in - - ()
Sea Level Pressure  
Sea Level Pressure 30.27 in    
Wind  
Wind Speed 12 mph (WNW)    
Max Wind Speed 16 mph    
Max Gust Speed 20 mph    
Visibility 10 miles    
Events      
Averages and records for this station are not official NWS values.
T = Trace of Precipitation, MM = Missing Value Source: NWS Daily Summary

Daily Weather History Graph

Daily Weather History Graph

Search for Another Location

Airport or City:

Trip Planner

Search our weather history database for the weather conditions in past years. The results will help you decide how hot, cold, wet, or windy it might be!

Date:

Astronomy

Feb. 20, 2013 Rise Set
Actual Time 6:42 AM CST 5:31 PM CST
Civil Twilight 6:13 AM CST 6:00 PM CST
Nautical Twilight 5:40 AM CST 6:33 PM CST
Astronomical Twilight 5:08 AM CST 7:05 PM CST
Moon 12:47 PM CST (2/20) 3:07 AM CST (2/20)
Length of Visible Light 11h 46m
Length of Day
10h 48m
Waxing Gibbous, 76% of the Moon is Illuminated
Feb 20
Waxing Gibbous
Feb 25
Full
Mar 4
Last Quarter
Mar 11
New
Mar 19
First Quarter

Hourly Weather History & Observations

Time (CST) Temp. Windchill Dew Point Humidity Pressure Visibility Wind Dir Wind Speed Gust Speed Precip Events Conditions
12:15 AM 6.8 °F -10.7 °F -0.4 °F 72% 30.13 in 10.0 mi WNW 15.0 mph - N/A   Clear
12:35 AM 6.8 °F -10.0 °F -0.4 °F 72% 30.14 in 10.0 mi WNW 13.8 mph - N/A   Clear
12:55 AM 6.8 °F -9.3 °F -0.4 °F 72% 30.15 in 10.0 mi WNW 12.7 mph 18.4 mph N/A   Clear
1:15 AM 5.0 °F -11.6 °F -0.4 °F 78% 30.15 in 10.0 mi WNW 12.7 mph 18.4 mph N/A   Clear
1:35 AM 5.0 °F -13.0 °F -0.4 °F 78% 30.16 in 10.0 mi West 15.0 mph - N/A   Clear
1:55 AM 5.0 °F -13.0 °F -0.4 °F 78% 30.18 in 10.0 mi West 15.0 mph - N/A   Clear
2:15 AM 5.0 °F -13.6 °F -0.4 °F 78% 30.18 in 10.0 mi WNW 16.1 mph 19.6 mph N/A   Clear
2:35 AM 5.0 °F -13.0 °F -0.4 °F 78% 30.19 in 10.0 mi WNW 15.0 mph 19.6 mph N/A   Clear
2:55 AM 5.0 °F -12.3 °F -0.4 °F 78% 30.19 in 10.0 mi WNW 13.8 mph 19.6 mph N/A   Clear
3:15 AM 5.0 °F -13.0 °F -0.4 °F 78% 30.20 in 10.0 mi WNW 15.0 mph - N/A   Clear
3:35 AM 5.0 °F -11.6 °F -0.4 °F 78% 30.20 in 10.0 mi WNW 12.7 mph 19.6 mph N/A   Clear
3:55 AM 5.0 °F -12.3 °F -0.4 °F 78% 30.20 in 10.0 mi WNW 13.8 mph - N/A   Clear
4:15 AM 5.0 °F -13.0 °F -0.4 °F 78% 30.21 in 10.0 mi WNW 15.0 mph - N/A   Clear
4:35 AM 5.0 °F -13.0 °F -0.4 °F 78% 30.22 in 10.0 mi WNW 15.0 mph - N/A   Clear
6:45 AM 3.2 °F -15.9 °F -2.2 °F 78% 30.26 in 10.0 mi WNW 16.1 mph - N/A   Clear
7:45 AM 3.2 °F -14.6 °F -0.4 °F 85% 30.27 in 10.0 mi WNW 13.8 mph - N/A   Clear
8:45 AM 6.8 °F -8.6 °F -0.4 °F 72% 30.27 in 10.0 mi WNW 11.5 mph - N/A   Clear
9:45 AM 8.6 °F -8.9 °F 1.4 °F 73% 30.27 in 10.0 mi NW 16.1 mph - N/A   Clear
11:45 AM 12.2 °F -2.5 °F 5.0 °F 73% 30.31 in 10.0 mi WNW 12.7 mph - N/A   Scattered Clouds
12:45 PM 15.8 °F 2.7 °F 6.8 °F 68% 30.29 in 10.0 mi NW 11.5 mph - N/A   Scattered Clouds
1:45 PM 15.8 °F 2.7 °F 8.6 °F 73% 30.32 in 10.0 mi NW 11.5 mph - N/A   Scattered Clouds
2:45 PM 17.6 °F 5.0 °F 8.6 °F 68% 30.35 in 10.0 mi West 11.5 mph - N/A   Scattered Clouds
3:45 PM 17.6 °F 5.7 °F 8.6 °F 68% 30.32 in 10.0 mi WNW 10.4 mph - N/A   Partly Cloudy
4:45 PM 17.6 °F 6.4 °F 8.6 °F 68% 30.33 in 10.0 mi WNW 9.2 mph - N/A   Partly Cloudy
5:45 PM 15.8 °F 7.2 °F 8.6 °F 73% 30.33 in 10.0 mi WNW 5.8 mph - N/A   Clear
6:45 PM 15.8 °F 8.6 °F 8.6 °F 73% 30.33 in 10.0 mi West 4.6 mph - N/A   Clear
7:45 PM 15.8 °F 10.2 °F 8.6 °F 73% 30.32 in 10.0 mi WNW 3.5 mph - N/A   Clear
8:15 PM 14.0 °F - 8.6 °F 79% 30.32 in 10.0 mi Calm Calm - N/A   Clear
8:35 PM 14.0 °F 5.1 °F 8.6 °F 79% 30.33 in 10.0 mi West 5.8 mph - N/A   Clear
8:45 PM 14.0 °F - 8.6 °F 79% 30.32 in 10.0 mi Calm Calm - N/A   Clear
9:15 PM 14.0 °F 6.5 °F 8.6 °F 79% 30.32 in 10.0 mi NW 4.6 mph - N/A   Clear
9:35 PM 14.0 °F 6.5 °F 8.6 °F 79% 30.32 in 10.0 mi NW 4.6 mph - N/A   Clear
9:55 PM 14.0 °F 6.5 °F 8.6 °F 79% 30.33 in 10.0 mi WNW 4.6 mph - N/A   Clear
10:35 PM 14.0 °F 6.5 °F 8.6 °F 79% 30.34 in 10.0 mi NNW 4.6 mph - N/A   Clear
10:55 PM 14.0 °F 6.5 °F 8.6 °F 79% 30.34 in 10.0 mi NW 4.6 mph - N/A   Clear
11:15 PM 14.0 °F 8.2 °F 8.6 °F 79% 30.34 in 10.0 mi NW 3.5 mph - N/A   Clear
11:35 PM 12.2 °F 6.1 °F 8.6 °F 85% 30.35 in 10.0 mi NNW 3.5 mph - N/A   Clear
11:55 PM 14.0 °F 6.5 °F 8.6 °F 79% 30.35 in 10.0 mi North 4.6 mph - N/A   Clear